カタログに戻る

SL-14 DEB

運用中PO
NORAD 45281·DEBRIS·🇷🇺 Russia

打ち上げ Aug 15, 1991 から Plesetsk Cosmodrome

Loading…

次のパス (今後24時間)

TLE

最新Source: Space-Track

元期: Sep 14, 2026, 13:13 UTC

1 45281U 91056T   26257.55095814  .00003761  00000-0  32069-2 0  9999
2 45281  82.5638 300.8757 0146842  66.7805 294.8741 13.82106339327228

AllMySatでSL-14 DEBをリアルタイム追跡

Download on the App Store